[[{"header":{"parameterUnit":"m.s-1","parameterCategory":1,"la1":30.2991,"la2":30.254,"lo1":-89.0895,"lo2":-89.0444,"dy":0.0017,"dx":0.0017,"nx":28,"ny":28,"refTime":"2023-08-27T21:00:00:Z","depth":0,"parameterNumber":2,"parameterNumberName":"U-component_of_WINDS"},"data":[0,0,0,0,0,0,0,0,0,0,0,0,0,0,0,0,0,0,0,0,0,0,0,0,0,0,0,0,0,0,0,0,0,0,0,0,0,0,0,0,0,0,0,0,0,0,0,0,0,0,0,0,0,0,0,0,0,0,-0.0243,-0.0243,0,-0.0164,-0.0163,-0.0162,-0.0098,-0.0098,-0.0097,-0.0096,-0.0023,-0.0021,-0.002,0,0,0,0,0,0,0,0,0,0,0,0,0,-0.0345,-0.0344,-0.0243,-0.0242,-0.0241,-0.0164,-0.0163,-0.0162,-0.0098,-0.0098,-0.0097,-0.0096,-0.0023,-0.0021,-0.002,0,0,0,0,0,0,0,0,0,0,0,0,0,-0.0288,-0.0343,-0.0244,-0.02,-0.0195,-0.0165,-0.0163,-0.0162,-0.0099,-0.0098,-0.0097,-0.0096,-0.0024,-0.0022,-0.002,-0.0028,0,0,-0.0014,-0.0013,0,0,0,0,0,0,0,0,-0.0291,-0.0284,-0.0208,-0.0203,-0.0198,-0.014,-0.0172,-0.0117,-0.0099,-0.0136,-0.0096,-0.0095,-0.0063,-0.0058,-0.0045,-0.0024,-0.0021,-0.0013,-0.0012,-0.0011,-0.0011,0,0,0,0,0,0,0,-0.0295,-0.0287,-0.0212,-0.0207,-0.0201,-0.0187,-0.0177,-0.0161,-0.0106,-0.0132,-0.0127,-0.0119,-0.006,-0.0047,-0.0043,-0.002,-0.0013,-0.0012,-0.001,-0.001,-0.0001,-0.0002,0,0,0,0,0,0,-0.0305,-0.0291,-0.0215,-0.021,-0.0242,-0.0186,-0.0175,-0.016,-0.0106,-0.0097,-0.012,-0.0116,-0.0051,-0.0045,-0.004,-0.0046,-0.0011,-0.0009,-0.0008,0.0,-0.0001,-0.0002,0,0,0,0,0,0,-0.0307,-0.0299,-0.0218,-0.0249,-0.0237,-0.0185,-0.0168,-0.0159,-0.0146,-0.0096,-0.0087,-0.0116,-0.005,-0.0043,-0.0031,-0.0042,-0.0009,-0.0007,0.0001,-0.0,-0.0002,-0.0057,0,0,0,0,0,0,-0.031,-0.03,-0.0301,-0.0249,-0.0236,-0.0208,-0.0169,-0.0158,-0.0142,-0.0136,-0.0091,-0.0082,-0.0049,-0.0034,-0.0029,-0.0039,-0.0005,0.0002,0.0001,-0.0001,-0.0054,-0.0061,-0.0066,0,0,0,0,0,-0.0314,-0.0322,-0.0302,-0.0293,-0.0236,-0.0209,-0.0202,-0.0161,-0.0143,-0.0144,-0.0112,-0.0084,-0.0041,-0.0033,-0.0027,-0.0037,0.0003,0.0001,-0.0001,-0.0052,-0.0059,-0.0066,0,0,0,0,0,0,-0.038,-0.0314,-0.0291,-0.0282,-0.0251,-0.0198,-0.0199,-0.017,-0.0146,-0.0143,-0.0095,-0.0085,-0.0078,-0.0056,-0.0048,-0.0041,-0.0015,-0.0016,-0.0056,-0.0063,-0.0069,-0.0075,-0.0003,0,0,0,0,0,-0.0393,-0.0374,-0.0318,-0.0316,-0.0301,-0.0253,-0.024,-0.021,-0.0178,-0.0165,-0.0132,-0.0104,-0.0084,-0.0072,-0.0051,-0.005,-0.004,-0.0054,-0.006,-0.0065,-0.0067,-0.0064,-0.007,-0.0009,-0.0009,-0.0009,0,0,-0.042,-0.0382,-0.0374,-0.0328,-0.0301,-0.0284,-0.0243,-0.0227,-0.0215,-0.0164,-0.0149,-0.0124,-0.0089,-0.0082,-0.0078,-0.0063,-0.0081,-0.0067,-0.0072,-0.0071,-0.0067,-0.0073,-0.0078,-0.0011,-0.001,-0.001,0,0,-0.0462,-0.043,-0.0424,-0.0397,-0.0355,-0.0322,-0.0321,-0.0271,-0.0252,-0.0236,-0.0197,-0.0182,-0.0149,-0.0125,-0.0109,-0.0139,-0.0112,-0.0134,-0.0165,-0.0163,-0.0168,-0.0172,-0.0183,-0.0188,-0.0136,-0.0136,-0.0136,0,-0.0502,-0.0473,-0.0426,-0.0411,-0.0393,-0.0342,-0.0336,-0.0313,-0.0268,-0.0257,-0.0241,-0.0196,-0.0169,-0.0156,-0.0163,-0.0151,-0.0149,-0.014,-0.0171,-0.0174,-0.0177,-0.0188,-0.0192,-0.0139,-0.0138,-0.0138,-0.0138,0,-0.0525,-0.0505,-0.0506,-0.0459,-0.0441,-0.0431,-0.0384,-0.0371,-0.0343,-0.0312,-0.0297,-0.0262,-0.0232,-0.0227,-0.0201,-0.021,-0.0202,-0.0179,-0.0152,-0.0187,-0.0196,-0.0199,-0.0143,-0.0142,-0.0141,-0.014,0,0,-0.0608,-0.0533,-0.0534,-0.0512,-0.0461,-0.0446,-0.0434,-0.0403,-0.0393,-0.0363,-0.0353,-0.0324,-0.0302,-0.0283,-0.0254,-0.0252,-0.0278,-0.0229,-0.0227,-0.024,-0.0287,-0.0305,-0.031,-0.0259,-0.026,-0.026,-0.029,0,-0.0642,-0.0615,-0.0571,-0.056,-0.0541,-0.0492,-0.0482,-0.045,-0.0421,-0.0403,-0.0371,-0.0352,-0.0324,-0.0312,-0.0308,-0.0276,-0.0287,-0.0273,-0.0251,-0.0251,-0.0262,-0.0315,-0.0335,-0.0365,-0.0293,-0.0293,-0.0294,0,-0.0679,-0.0648,-0.0634,-0.0583,-0.0573,-0.0565,-0.0531,-0.0514,-0.0477,-0.0456,-0.0434,-0.0401,-0.0387,-0.0361,-0.0343,-0.0334,-0.0322,-0.0305,-0.0305,-0.0303,-0.0276,-0.0315,-0.0373,-0.0378,-0.0299,-0.0298,-0.0298,0,-0.0742,-0.0697,-0.0683,-0.0665,-0.0605,-0.06,-0.0575,-0.0537,-0.052,-0.0492,-0.0481,-0.0452,-0.0437,-0.0417,-0.0377,-0.0362,-0.0363,-0.0334,-0.0347,-0.0348,-0.0351,-0.0351,-0.0409,-0.0341,-0.0341,-0.0341,-0.0341,0,-0.0786,-0.0779,-0.071,-0.0701,-0.0692,-0.0642,-0.0635,-0.0606,-0.0572,-0.0558,-0.0514,-0.0503,-0.045,-0.0433,-0.0402,-0.0391,-0.0385,-0.0369,-0.0361,-0.0373,-0.0375,-0.0366,-0.0363,-0.0342,-0.0342,-0.0342,-0.0341,0,-0.0856,-0.0808,-0.0789,-0.0732,-0.0717,-0.0714,-0.0666,-0.0656,-0.0623,-0.0606,-0.0599,-0.0549,-0.0525,-0.0483,-0.0449,-0.0428,-0.0425,-0.041,-0.0436,-0.0432,-0.0447,-0.0446,-0.0501,-0.0506,-0.0435,-0.0436,-0.0436,0,-0.0887,-0.088,-0.0821,-0.0807,-0.0783,-0.0761,-0.0743,-0.0692,-0.0676,-0.0632,-0.0628,-0.0601,-0.0577,-0.0543,-0.0504,-0.0478,-0.0463,-0.0484,-0.0459,-0.0471,-0.0464,-0.0466,-0.0465,-0.049,-0.0491,-0.0492,-0.0493,0,-0.0948,-0.0925,-0.0898,-0.0864,-0.0842,-0.0814,-0.0783,-0.0774,-0.0718,-0.0701,-0.0675,-0.0656,-0.0619,-0.0594,-0.0561,-0.0537,-0.0507,-0.05,-0.0502,-0.0516,-0.0531,-0.0523,-0.0453,-0.05,-0.0499,-0.0499,-0.0498,-0.0498,-0.1001,-0.0992,-0.0948,-0.092,-0.0891,-0.0862,-0.085,-0.0814,-0.079,-0.0755,-0.0727,-0.0703,-0.0666,-0.0619,-0.0597,-0.0579,-0.0564,-0.0567,-0.0568,-0.0569,-0.0574,-0.0532,-0.0573,-0.0573,-0.0572,-0.0572,-0.0572,0,-0.106,-0.1029,-0.1003,-0.0959,-0.0938,-0.0906,-0.087,-0.0855,-0.0834,-0.08,-0.0776,-0.0746,-0.072,-0.0678,-0.0649,-0.0643,-0.0628,-0.0637,-0.0638,-0.0633,-0.0589,-0.059,-0.065,-0.065,-0.065,-0.065,-0.065,-0.065,-0.1089,-0.1072,-0.1043,-0.1011,-0.098,-0.0954,-0.0936,-0.091,-0.0883,-0.0851,-0.0828,-0.0799,-0.0763,-0.073,-0.0705,-0.0694,-0.0686,-0.07,-0.0684,-0.0644,-0.0637,-0.063,-0.0631,-0.0698,-0.0698,-0.073,-0.073,-0.0731]},{"header":{"parameterUnit":"m.s-1","parameterCategory":1,"la1":30.2991,"la2":30.254,"lo1":-89.0895,"lo2":-89.0444,"dy":0.0017,"dx":0.0017,"nx":28,"ny":28,"refTime":"2023-08-27T21:00:00:Z","depth":0,"parameterNumber":3,"parameterNumberName":"V-component_of_WINDS"},"data":[0,0,0,0,0,0,0,0,0,0,0,0,0,0,0,0,0,0,0,0,0,0,0,0,0,0,0,0,0,0,0,0,0,0,0,0,0,0,0,0,0,0,0,0,0,0,0,0,0,0,0,0,0,0,0,0,0,0,-2.5104,-2.5104,0,-2.5133,-2.5133,-2.5134,-2.5124,-2.5123,-2.5123,-2.5122,-2.515,-2.5151,-2.5152,0,0,0,0,0,0,0,0,0,0,0,0,0,-2.5037,-2.5039,-2.5104,-2.5104,-2.5105,-2.5133,-2.5133,-2.5134,-2.5124,-2.5123,-2.5122,-2.5122,-2.5149,-2.5151,-2.5153,0,0,0,0,0,0,0,0,0,0,0,0,0,-2.5066,-2.5039,-2.5104,-2.5103,-2.5104,-2.5133,-2.5133,-2.5134,-2.5124,-2.5123,-2.5122,-2.5121,-2.5149,-2.5151,-2.5153,-2.5184,0,0,-2.5159,-2.516,0,0,0,0,0,0,0,0,-2.5065,-2.5069,-2.5103,-2.5103,-2.5104,-2.5124,-2.512,-2.5151,-2.5124,-2.5116,-2.5122,-2.5121,-2.5142,-2.5144,-2.5152,-2.5185,-2.5186,-2.5159,-2.516,-2.5161,-2.5162,0,0,0,0,0,0,0,-2.5063,-2.5067,-2.5115,-2.5104,-2.5104,-2.5101,-2.5104,-2.5126,-2.5134,-2.5117,-2.5116,-2.512,-2.5142,-2.515,-2.5152,-2.5187,-2.5159,-2.5161,-2.5162,-2.5163,-2.5244,-2.5245,0,0,0,0,0,0,-2.5061,-2.5066,-2.5114,-2.5116,-2.5082,-2.5103,-2.5106,-2.5118,-2.5134,-2.5135,-2.5121,-2.5119,-2.5147,-2.515,-2.5153,-2.5189,-2.5161,-2.5163,-2.5164,-2.5244,-2.5245,-2.5246,0,0,0,0,0,0,-2.5059,-2.5065,-2.5113,-2.5091,-2.5097,-2.5105,-2.5119,-2.5119,-2.5127,-2.5137,-2.5138,-2.5128,-2.5146,-2.515,-2.5176,-2.519,-2.5164,-2.5166,-2.5242,-2.5244,-2.5245,-2.5261,0,0,0,0,0,0,-2.5058,-2.5065,-2.5077,-2.5091,-2.5098,-2.5136,-2.512,-2.5121,-2.5131,-2.513,-2.5143,-2.5145,-2.5146,-2.5173,-2.5178,-2.5192,-2.5167,-2.5241,-2.5243,-2.5245,-2.526,-2.5263,-2.5266,0,0,0,0,0,-2.5055,-2.5081,-2.5078,-2.5084,-2.5114,-2.5137,-2.5141,-2.5142,-2.5132,-2.5144,-2.515,-2.5144,-2.5188,-2.5176,-2.5181,-2.5196,-2.524,-2.5242,-2.5245,-2.5258,-2.5262,-2.5266,0,0,0,0,0,0,-2.5068,-2.5083,-2.508,-2.5111,-2.5123,-2.5136,-2.5151,-2.5147,-2.5162,-2.516,-2.516,-2.5164,-2.5189,-2.5195,-2.5182,-2.5226,-2.5212,-2.5216,-2.5221,-2.5225,-2.5228,-2.5225,-2.5169,0,0,0,0,0,-2.5075,-2.5093,-2.5105,-2.5131,-2.5137,-2.5143,-2.5153,-2.5153,-2.5165,-2.517,-2.5178,-2.5189,-2.5205,-2.5216,-2.5231,-2.5261,-2.5262,-2.5274,-2.5277,-2.528,-2.5282,-2.5296,-2.5301,-2.5253,-2.5253,-2.5253,0,0,-2.5089,-2.5099,-2.511,-2.5134,-2.5143,-2.5161,-2.5147,-2.5167,-2.518,-2.5173,-2.5197,-2.5203,-2.5215,-2.5243,-2.5255,-2.5248,-2.5296,-2.5282,-2.5284,-2.5285,-2.5299,-2.5303,-2.5307,-2.5255,-2.5254,-2.5254,0,0,-2.5122,-2.5133,-2.5154,-2.5164,-2.5178,-2.5182,-2.5187,-2.52,-2.5203,-2.5228,-2.5222,-2.5237,-2.5265,-2.5274,-2.5282,-2.5317,-2.5312,-2.5322,-2.5339,-2.5353,-2.5357,-2.536,-2.5371,-2.5375,-2.5325,-2.5325,-2.5325,0,-2.5137,-2.5164,-2.5166,-2.5186,-2.5195,-2.5191,-2.5212,-2.5221,-2.5239,-2.5245,-2.5238,-2.5272,-2.528,-2.5308,-2.5317,-2.5324,-2.5329,-2.532,-2.5356,-2.5359,-2.5363,-2.5373,-2.5377,-2.5326,-2.5326,-2.5326,-2.5326,0,-2.5181,-2.52,-2.5216,-2.5233,-2.5245,-2.5265,-2.5269,-2.5281,-2.5279,-2.5283,-2.5307,-2.5317,-2.5333,-2.534,-2.5339,-2.5368,-2.5363,-2.5356,-2.5342,-2.5368,-2.5377,-2.5382,-2.5328,-2.5327,-2.5327,-2.5327,0,0,-2.5223,-2.5241,-2.5247,-2.5254,-2.5268,-2.5282,-2.5302,-2.5318,-2.5327,-2.534,-2.5355,-2.5378,-2.5372,-2.5381,-2.5381,-2.5393,-2.5418,-2.5384,-2.5385,-2.5389,-2.5447,-2.5451,-2.5456,-2.5415,-2.5416,-2.5416,-2.5446,0,-2.5256,-2.5291,-2.5293,-2.5324,-2.534,-2.5335,-2.5352,-2.5362,-2.5366,-2.538,-2.5384,-2.54,-2.5391,-2.5396,-2.5408,-2.5412,-2.5429,-2.5411,-2.5428,-2.5428,-2.5423,-2.5461,-2.5466,-2.5493,-2.545,-2.545,-2.5451,0,-2.53,-2.5313,-2.5346,-2.5357,-2.5364,-2.5379,-2.5393,-2.5407,-2.5417,-2.5419,-2.5429,-2.5427,-2.5445,-2.5432,-2.5457,-2.5444,-2.5451,-2.5454,-2.5455,-2.5455,-2.544,-2.5461,-2.5502,-2.5505,-2.5457,-2.5457,-2.5456,0,-2.5325,-2.5352,-2.5374,-2.5381,-2.5394,-2.5405,-2.5411,-2.5421,-2.543,-2.5442,-2.5447,-2.5462,-2.5469,-2.548,-2.5481,-2.5471,-2.5505,-2.5492,-2.5506,-2.5505,-2.5512,-2.5511,-2.5553,-2.5519,-2.5519,-2.5519,-2.5519,0,-2.5361,-2.5381,-2.5385,-2.5399,-2.542,-2.5422,-2.5443,-2.5448,-2.5456,-2.547,-2.5467,-2.548,-2.5481,-2.5494,-2.5495,-2.5514,-2.5518,-2.5519,-2.5519,-2.5518,-2.5518,-2.5522,-2.5519,-2.552,-2.552,-2.552,-2.5519,0,-2.5393,-2.5397,-2.542,-2.5431,-2.5434,-2.5449,-2.5458,-2.547,-2.5474,-2.5491,-2.5495,-2.55,-2.5515,-2.5517,-2.5535,-2.5536,-2.5558,-2.5557,-2.5554,-2.5553,-2.5566,-2.5564,-2.5611,-2.5616,-2.558,-2.5581,-2.5581,0,-2.5414,-2.5429,-2.5441,-2.545,-2.5457,-2.5472,-2.5481,-2.5482,-2.5491,-2.5504,-2.5515,-2.5529,-2.554,-2.5564,-2.5569,-2.5582,-2.558,-2.5595,-2.5581,-2.558,-2.5578,-2.5576,-2.5577,-2.5597,-2.5597,-2.5598,-2.5598,0,-2.5452,-2.5453,-2.5467,-2.548,-2.5491,-2.5502,-2.5512,-2.552,-2.5522,-2.5533,-2.5548,-2.5557,-2.5574,-2.5588,-2.5601,-2.5606,-2.5602,-2.5602,-2.5606,-2.5605,-2.5602,-2.5602,-2.5559,-2.5601,-2.5601,-2.5601,-2.56,-2.56,-2.5479,-2.5491,-2.5501,-2.5515,-2.5523,-2.5532,-2.5544,-2.5549,-2.5561,-2.5576,-2.5576,-2.5592,-2.56,-2.5617,-2.5623,-2.5635,-2.563,-2.5635,-2.5636,-2.5637,-2.5638,-2.5602,-2.5637,-2.5637,-2.5637,-2.5637,-2.5637,0,-2.5515,-2.552,-2.5534,-2.5548,-2.5559,-2.5555,-2.5566,-2.5575,-2.5589,-2.5598,-2.5609,-2.5625,-2.5638,-2.5644,-2.5657,-2.5665,-2.5663,-2.5668,-2.5667,-2.5667,-2.5642,-2.5637,-2.5669,-2.5669,-2.5669,-2.5669,-2.5669,-2.5669,-2.5535,-2.5554,-2.5556,-2.5579,-2.5585,-2.5601,-2.5607,-2.5615,-2.5622,-2.564,-2.5651,-2.5655,-2.5662,-2.5675,-2.5686,-2.5687,-2.5691,-2.5696,-2.5697,-2.5673,-2.5669,-2.5666,-2.5661,-2.5698,-2.5698,-2.572,-2.5721,-2.5721]}]]